Marshall, MN

5:07 PM CDT on August 23, 2016 (GMT -0500)
Marshall Municipal-Ryan

Weather History for KMML - May, 2009

Change the Weather History Date:

Sunday, May 3, 2009

  Actual Average Record
Temperature  
Mean Temperature 52 °F -  
Max Temperature 66 °F 64 °F 94 °F (1949)
Min Temperature 39 °F 39 °F 21 °F (1967)
Degree Days  
Heating Degree Days 12    
Growing Degree Days 2 (Base 50)    
Moisture  
Dew Point 28 °F    
Average Humidity 38    
Maximum Humidity 61    
Minimum Humidity 24    
Precipitation  
Precipitation 0.00 in - - ()
Sea Level Pressure  
Sea Level Pressure 29.96 in    
Wind  
Wind Speed 10 mph (WNW)    
Max Wind Speed 17 mph    
Max Gust Speed 24 mph    
Visibility 10 miles    
Events      
Averages and records for this station are not official NWS values.
T = Trace of Precipitation, MM = Missing Value Source: NWS Daily Summary

Daily Weather History Graph

Daily Weather History Graph

Search for Another Location

Airport or City:

Trip Planner

Search our weather history database for the weather conditions in past years. The results will help you decide how hot, cold, wet, or windy it might be!

Date:

Astronomy

May. 03, 2009 Rise Set
Actual Time 6:10 AM CDT 8:30 PM CDT
Civil Twilight 5:38 AM CDT 9:02 PM CDT
Nautical Twilight 4:58 AM CDT 9:42 PM CDT
Astronomical Twilight 4:13 AM CDT 10:28 PM CDT
Moon 2:51 PM CDT (5/3) 3:23 AM CDT (5/3)
Length of Visible Light 15h 24m
Length of Day
14h 19m
Waxing Gibbous, 70% of the Moon is Illuminated
May 3
Waxing Gibbous
May 8
Full
May 17
Last Quarter
May 24
New
May 30
First Quarter

Hourly Weather History & Observations

Time (CDT) Temp. Windchill Dew Point Humidity Pressure Visibility Wind Dir Wind Speed Gust Speed Precip Events Conditions
12:15 AM 50.0 °F - 26.6 °F 40% 29.90 in 10.0 mi West 11.5 mph - N/A   Mostly Cloudy
12:55 AM 48.2 °F - 28.4 °F 46% 29.91 in 10.0 mi WSW 10.4 mph - N/A   Mostly Cloudy
1:15 AM 46.4 °F 42.9 °F 26.6 °F 46% 29.91 in 10.0 mi West 6.9 mph - N/A   Mostly Cloudy
1:35 AM 46.4 °F 42.4 °F 26.6 °F 46% 29.91 in 10.0 mi West 8.1 mph - N/A   Mostly Cloudy
1:55 AM 46.4 °F 41.9 °F 28.4 °F 50% 29.92 in 10.0 mi West 9.2 mph - N/A   Overcast
2:15 AM 44.6 °F 39.7 °F 28.4 °F 53% 29.92 in 10.0 mi West 9.2 mph - N/A   Mostly Cloudy
2:35 AM 44.6 °F 39.7 °F 28.4 °F 53% 29.92 in 10.0 mi West 9.2 mph - N/A   Mostly Cloudy
2:55 AM 46.4 °F 41.9 °F 28.4 °F 50% 29.93 in 10.0 mi West 9.2 mph - N/A   Overcast
3:15 AM 46.4 °F 42.4 °F 28.4 °F 50% 29.93 in 10.0 mi West 8.1 mph - N/A   Overcast
3:35 AM 44.6 °F 39.7 °F 28.4 °F 53% 29.93 in 10.0 mi West 9.2 mph - N/A   Scattered Clouds
3:55 AM 44.6 °F 39.7 °F 28.4 °F 53% 29.93 in 10.0 mi West 9.2 mph - N/A   Clear
4:15 AM 41.0 °F 36.4 °F 26.6 °F 57% 29.93 in 10.0 mi West 6.9 mph - N/A   Clear
4:35 AM 41.0 °F 36.4 °F 26.6 °F 57% 29.94 in 10.0 mi West 6.9 mph - N/A   Clear
4:55 AM 42.8 °F 38.0 °F 26.6 °F 53% 29.94 in 10.0 mi WSW 8.1 mph - N/A   Clear
5:15 AM 42.8 °F 38.6 °F 26.6 °F 53% 29.94 in 10.0 mi WSW 6.9 mph - N/A   Clear
5:35 AM 41.0 °F 37.1 °F 26.6 °F 57% 29.94 in 10.0 mi WSW 5.8 mph - N/A   Clear
5:55 AM 41.0 °F 36.4 °F 26.6 °F 57% 29.94 in 10.0 mi WSW 6.9 mph - N/A   Clear
6:15 AM 39.2 °F 33.0 °F 26.6 °F 61% 29.94 in 10.0 mi WSW 9.2 mph - N/A   Clear
6:35 AM 41.0 °F 35.8 °F 26.6 °F 57% 29.95 in 10.0 mi WSW 8.1 mph - N/A   Clear
6:55 AM 41.0 °F 36.4 °F 28.4 °F 61% 29.95 in 10.0 mi WSW 6.9 mph - N/A   Clear
7:15 AM 44.6 °F 41.4 °F 28.4 °F 53% 29.96 in 10.0 mi SW 5.8 mph - N/A   Clear
7:35 AM 46.4 °F 42.9 °F 30.2 °F 53% 29.97 in 10.0 mi WSW 6.9 mph - N/A   Clear
7:55 AM 51.8 °F - 30.2 °F 44% 29.98 in 10.0 mi WSW 9.2 mph - N/A   Clear
8:15 AM 51.8 °F - 30.2 °F 44% 29.98 in 10.0 mi WSW 8.1 mph - N/A   Clear
8:35 AM 55.4 °F - 33.8 °F 44% 29.99 in 10.0 mi WNW 9.2 mph - N/A   Clear
8:55 AM 55.4 °F - 33.8 °F 44% 29.99 in 10.0 mi WNW 10.4 mph - N/A   Clear
9:15 AM 57.2 °F - 32.0 °F 38% 29.99 in 10.0 mi West 12.7 mph - N/A   Clear
9:35 AM 59.0 °F - 32.0 °F 36% 29.99 in 10.0 mi WNW 10.4 mph - N/A   Clear
9:55 AM 59.0 °F - 30.2 °F 34% 29.98 in 10.0 mi NW 11.5 mph - N/A   Clear
10:15 AM 60.8 °F - 30.2 °F 31% 29.98 in 10.0 mi WNW 9.2 mph - N/A   Clear
10:35 AM 60.8 °F - 30.2 °F 31% 29.98 in 10.0 mi NW 11.5 mph 17.3 mph N/A   Clear
10:55 AM 60.8 °F - 30.2 °F 31% 29.98 in 10.0 mi NW 9.2 mph 18.4 mph N/A   Clear
11:15 AM 60.8 °F - 30.2 °F 31% 29.98 in 10.0 mi NW 9.2 mph - N/A   Clear
11:35 AM 62.6 °F - 28.4 °F 27% 29.98 in 10.0 mi NW 9.2 mph 21.9 mph N/A   Clear
11:55 AM 62.6 °F - 30.2 °F 30% 29.98 in 10.0 mi WNW 6.9 mph 18.4 mph N/A   Clear
12:15 PM 62.6 °F - 30.2 °F 30% 29.98 in 10.0 mi West 8.1 mph 23.0 mph N/A   Clear
12:35 PM 62.6 °F - 28.4 °F 27% 29.97 in 10.0 mi WNW 12.7 mph - N/A   Clear
12:55 PM 64.4 °F - 28.4 °F 26% 29.97 in 10.0 mi NW 10.4 mph 18.4 mph N/A   Clear
1:35 PM 64.4 °F - 28.4 °F 26% 29.96 in 10.0 mi NNW 12.7 mph 21.9 mph N/A   Clear
1:55 PM 64.4 °F - 28.4 °F 26% 29.96 in 10.0 mi WNW 13.8 mph 24.2 mph N/A   Clear
2:15 PM 64.4 °F - 28.4 °F 26% 29.96 in 10.0 mi West 11.5 mph 19.6 mph N/A   Clear
2:35 PM 64.4 °F - 28.4 °F 26% 29.96 in 10.0 mi WNW 12.7 mph 19.6 mph N/A   Clear
2:55 PM 66.2 °F - 28.4 °F 24% 29.96 in 10.0 mi NW 17.3 mph 20.7 mph N/A   Clear
3:15 PM 66.2 °F - 28.4 °F 24% 29.96 in 10.0 mi NW 10.4 mph 16.1 mph N/A   Clear
3:35 PM 66.2 °F - 28.4 °F 24% 29.95 in 10.0 mi West 13.8 mph 18.4 mph N/A   Clear
3:55 PM 66.2 °F - 28.4 °F 24% 29.95 in 10.0 mi WNW 15.0 mph 20.7 mph N/A   Clear
4:15 PM 66.2 °F - 30.2 °F 26% 29.95 in 10.0 mi NW 11.5 mph 23.0 mph N/A   Clear
4:35 PM 66.2 °F - 30.2 °F 26% 29.96 in 10.0 mi WNW 15.0 mph 19.6 mph N/A   Clear
4:55 PM 66.2 °F - 28.4 °F 24% 29.96 in 10.0 mi NNW 13.8 mph 19.6 mph N/A   Clear
5:15 PM 66.2 °F - 28.4 °F 24% 29.96 in 10.0 mi NNW 13.8 mph 20.7 mph N/A   Clear
5:35 PM 64.4 °F - 26.6 °F 24% 29.96 in 10.0 mi West 15.0 mph - N/A   Clear
5:55 PM 64.4 °F - 26.6 °F 24% 29.96 in 10.0 mi WNW 13.8 mph 24.2 mph N/A   Clear
6:15 PM 64.4 °F - 26.6 °F 24% 29.96 in 10.0 mi NW 8.1 mph - N/A   Clear
6:35 PM 64.4 °F - 26.6 °F 24% 29.96 in 10.0 mi NW 13.8 mph - N/A   Clear
6:55 PM 64.4 °F - 28.4 °F 26% 29.96 in 10.0 mi WNW 13.8 mph - N/A   Clear
7:15 PM 62.6 °F - 26.6 °F 26% 29.96 in 10.0 mi NW 12.7 mph - N/A   Clear
7:35 PM 60.8 °F - 26.6 °F 27% 29.96 in 10.0 mi NNW 15.0 mph - N/A   Clear
7:55 PM 60.8 °F - 26.6 °F 27% 29.97 in 10.0 mi North 11.5 mph - N/A   Clear
8:15 PM 59.0 °F - 26.6 °F 29% 29.97 in 10.0 mi North 10.4 mph - N/A   Clear
8:35 PM 57.2 °F - 26.6 °F 31% 29.97 in 10.0 mi North - - N/A   Clear
8:55 PM 55.4 °F - 26.6 °F 33% 29.97 in 10.0 mi North 6.9 mph - N/A   Clear
9:15 PM 53.6 °F - 26.6 °F 35% 29.98 in 10.0 mi NNW 6.9 mph - N/A   Clear
9:35 PM 53.6 °F - 26.6 °F 35% 29.99 in 10.0 mi North 8.1 mph - N/A   Clear
9:55 PM 53.6 °F - 26.6 °F 35% 29.99 in 10.0 mi North - - N/A   Clear
10:15 PM 51.8 °F - 26.6 °F 38% 29.99 in 10.0 mi North - - N/A   Clear
10:35 PM 51.8 °F - 26.6 °F 38% 30.00 in 10.0 mi North 3.5 mph - N/A   Clear
10:55 PM 48.2 °F - 26.6 °F 43% 29.99 in 10.0 mi West 3.5 mph - N/A   Clear
11:15 PM 48.2 °F - 26.6 °F 43% 29.99 in 10.0 mi West 3.5 mph - N/A   Clear
11:35 PM 48.2 °F - 26.6 °F 43% 29.99 in 10.0 mi Calm Calm - N/A   Clear
11:55 PM 48.2 °F - 26.6 °F 43% 29.99 in 10.0 mi West 3.5 mph - N/A   Clear